Change the Weather History Date:

Sunday, June 22, 2014

  Actual Average Record
Temperature  
Mean Temperature 63 °F 66 °F  
Max Temperature 78 °F 79 °F 109 °F (1900)
Min Temperature 48 °F 53 °F 33 °F (1942)
Degree Days  
Heating Degree Days 2 2  
Month to date heating degree days 104 91  
Since 1 June heating degree days 104 91  
Since 1 July heating degree days 8912 8422  
Cooling Degree Days 0 3  
Month to date cooling degree days 6 45  
Year to date cooling degree days 40 62  
Since 1 June cooling degree days 6 45  
Growing Degree Days 14 (Base 50)    
Moisture  
Dew Point 42 °F    
Average Humidity 56    
Maximum Humidity 89    
Minimum Humidity 23    
Precipitation  
Precipitation 0.00 in 0.08 in 1.26 in (1916)
Month to date precipitation 1.79 1.78  
Year to date precipitation 5.18 5.60  
Snow  
Snow 0.00 in 0.00 in T in (1993)
Month to date snowfall 0.0 0.0  
Since 1 June snowfall 0.0 0.0  
Since 1 July snowfall 30.4 34.8  
Snow Depth 0.00 in    
Sea Level Pressure  
Sea Level Pressure 29.99 in    
Wind  
Wind Speed 13 mph (NW)    
Max Wind Speed 25 mph    
Max Gust Speed 32 mph    
Visibility 10 miles    
Events      
T = Trace of Precipitation, MM = Missing Value Source: NWS Daily Summary

Daily Weather History Graph

Daily Weather History Graph

Search for Another Location

Airport or City:

Trip Planner

Search our weather history database for the weather conditions in past years. The results will help you decide how hot, cold, wet, or windy it might be!

Date:

Astronomy

Jun. 22, 2014 Rise Set
Actual Time 5:06 AM MDT 9:10 PM MDT
Civil Twilight 4:24 AM MDT 9:52 PM MDT
Nautical Twilight 3:26 AM MDT 10:50 PM MDT
Astronomical Twilight 1:40 AM MDT 12:36 AM MDT
Moon 2:13 AM MDT (6/22) 4:39 PM MDT (6/22)
Length of Visible Light 17h 28m
Length of Day
16h 04m
Waning Crescent, 20% of the Moon is Illuminated
Jun 22
Waning Crescent
Jun 27
New
Jul 5
First Quarter
Jul 12
Full
Jul 18
Last Quarter

Hourly Weather History & Observations

Time (MDT) Temp. Dew Point Humidity Pressure Visibility Wind Dir Wind Speed Gust Speed Precip Events Conditions
12:53 AM 55.0 °F 48.9 °F 80% 29.98 in 10.0 mi West 3.5 mph - N/A   Clear
1:53 AM 52.0 °F 48.0 °F 86% 29.99 in 10.0 mi WNW 5.8 mph - N/A   Clear
2:53 AM 51.1 °F 46.0 °F 83% 29.99 in 10.0 mi West 6.9 mph - N/A   Clear
3:53 AM 50.0 °F 45.0 °F 83% 29.98 in 10.0 mi WNW 6.9 mph - N/A   Clear
4:53 AM 48.9 °F 45.0 °F 86% 29.98 in 10.0 mi NW 8.1 mph - N/A   Clear
5:53 AM 50.0 °F 46.9 °F 89% 30.00 in 10.0 mi NW 9.2 mph - N/A   Clear
6:53 AM 53.1 °F 46.9 °F 80% 30.01 in 10.0 mi NW 8.1 mph - N/A   Clear
7:53 AM 60.1 °F 41.0 °F 49% 30.01 in 10.0 mi NW 17.3 mph - N/A   Clear
8:53 AM 64.0 °F 41.0 °F 43% 30.02 in 10.0 mi WNW 15.0 mph - N/A   Clear
9:53 AM 68.0 °F 39.9 °F 36% 30.02 in 10.0 mi WNW 16.1 mph 24.2 mph N/A   Clear
10:53 AM 70.0 °F 39.0 °F 32% 30.02 in 10.0 mi WNW 19.6 mph 25.3 mph N/A   Clear
11:53 AM 73.0 °F 37.9 °F 28% 30.00 in 10.0 mi WNW 21.9 mph 32.2 mph N/A   Clear
12:53 PM 73.9 °F 37.0 °F 26% 29.99 in 10.0 mi WNW 18.4 mph 28.8 mph N/A   Clear
1:53 PM 75.9 °F 39.9 °F 27% 29.98 in 10.0 mi WNW 19.6 mph 28.8 mph N/A   Clear
2:53 PM 75.9 °F 37.9 °F 25% 29.98 in 10.0 mi NW 20.7 mph 28.8 mph N/A   Clear
3:53 PM 77.0 °F 37.0 °F 24% 29.97 in 10.0 mi NW 12.7 mph 26.5 mph N/A   Clear
4:53 PM 78.1 °F 37.9 °F 24% 29.96 in 10.0 mi NW 21.9 mph 25.3 mph N/A   Clear
5:53 PM 77.0 °F 37.9 °F 24% 29.95 in 10.0 mi NNW 17.3 mph 25.3 mph N/A   Clear
6:53 PM 75.0 °F 39.0 °F 27% 29.96 in 10.0 mi NW 18.4 mph 23.0 mph N/A   Clear
7:53 PM 73.0 °F 41.0 °F 31% 29.96 in 10.0 mi NW 12.7 mph - N/A   Clear
8:53 PM 66.9 °F 43.0 °F 42% 29.98 in 10.0 mi NNW 8.1 mph - N/A   Clear
9:53 PM 60.1 °F 45.0 °F 57% 29.99 in 10.0 mi NNE 8.1 mph - N/A   Clear
11:53 PM 55.9 °F 45.0 °F 67% 30.00 in 10.0 mi NW 3.5 mph - N/A   Clear